Location: Campbell River
(50.0170°N, 125.2500°W)
Time: 09:34:48
(UTC-07:00)

Daily predictions for brighter satellites

Satellite Brightness Start Highest point End
(mag) Time Altitude Azimuth Time Altitude Azimuth Time Altitude Azimuth
Cosmos 1933 Rocket 3.5 20:59:40 10° N 21:04:06 80° E 21:08:26 10° SSE
Spot 2 Rocket 3.6 21:00:22 10° SSE 21:05:26 69° ENE 21:10:30 10° N
Thor Agena Rocket 3.6 21:00:55 10° NNE 21:06:11 73° ESE 21:11:27 10° S
Cosmos 2154 Rocket 4.4 21:00:00 10° SSW 21:06:14 71° WNW 21:12:29 10° N
SL-8 R/B 4.1 21:02:11 10° SW 21:06:43 43° SSE 21:11:16 10° E
Cosmos 1455 2.4 21:03:13 10° SSW 21:07:04 77° W 21:10:59 10° N
Cosmos 2360 Rocket 4.4 21:02:26 10° WSW 21:07:21 30° NW 21:12:20 10° NNE
SJ-6B 4.4 21:05:17 10° SSW 21:09:00 37° W 21:12:40 10° NNW
Cosmos 1727 Rocket 4.3 21:04:54 10° N 21:10:56 51° ENE 21:16:54 10° SSE
Meteor 2-3 Rocket 4.4 21:06:02 10° NNW 21:11:33 59° W 21:17:04 10° S
Cosmos 1980 3.7 21:06:49 10° SSW 21:12:27 71° ESE 21:18:09 10° NNE
Cosmos 1869 3.6 21:11:53 10° SSE 21:15:44 46° E 21:19:37 10° NNE
Cosmos 1441 Rocket 4.5 21:13:06 10° SE 21:15:59 21° E 21:18:53 10° NE
Cosmos 2297 3.8 21:11:28 10° NNW 21:17:10 74° ENE 21:22:52 10° SE
Cosmos 2369 Rocket 3.7 21:12:35 10° NNW 21:17:12 24° NE 21:21:47 10° E
Terra 3.9 21:20:30 10° ENE 21:22:27 12° NE 21:24:25 10° NNE
Cosmos 614 Rocket 4.4 21:17:28 10° NNW 21:22:33 47° ENE 21:27:21 11° SE
Resurs 1-3 4.1 21:19:17 10° S 21:23:38 62° WSW 21:28:01 10° NNW
USA 186 3.2 21:22:01 10° SSW 21:24:01 25° W 21:26:07 10° NW
ATLAS CENTAUR R/B 1.8 21:20:34 10° SW 21:24:15 60° NW 21:28:10 10° NE
NOSS 3-4 (A) 3.9 21:19:11 10° NW 21:26:07 81° SW 21:33:38 10° SE
NOSS 3-4 (C) 3.9 21:19:16 10° NW 21:26:14 81° SW 21:33:44 10° SE
Cosmos 1869 Rocket 3.9 21:22:54 10° N 21:27:08 46° ENE 21:31:16 10° SSE
Cosmos 1939 Rocket 3.8 21:23:50 10° S 21:27:36 47° W 21:31:27 10° NNW
CZ-4B DEB 4.5 21:26:47 10° SSE 21:30:16 68° ENE 21:33:46 10° N
Cosmos 2333 Rocket 2.8 21:24:58 10° SW 21:30:35 61° WNW 21:36:13 10° NNE
Cosmos 2344 4.3 21:25:12 10° SSE 21:31:31 29° ESE 21:38:21 10° NE
Cosmos 2219 Rocket 3.2 21:26:47 10° SW 21:32:18 52° NW 21:37:50 10° NNE
ERS-1 Rocket 3.6 21:29:53 12° SE 21:34:12 40° ENE 21:38:53 10° N
Cosmos 2218 Rocket 4.0 21:27:50 10° S 21:34:12 77° E 21:40:37 10° NNE
ATLAS 5 CENTAUR R/B 3.2 21:29:23 10° NW 21:34:37 39° NNE 21:40:22 10° E
BREEZE-M DEB (TANK) 1.5 21:32:58 10° W 21:35:28 77° S 21:37:28 12° E
SL-08 RB Rocket 4.3 21:31:59 12° SE 21:35:46 41° ENE 21:39:59 10° N
COSMOS 2428 4.4 21:30:32 10° WSW 21:35:52 39° NW 21:41:14 10° NNE
Cosmos 2237 Rocket 2.3 21:33:19 10° SSW 21:38:56 83° WNW 21:44:38 10° NNE
Cosmos 407 Rocket 3.6 21:34:09 10° NNW 21:39:18 76° WSW 21:44:24 10° SSE
Cosmos 2366 rocket 4.0 21:34:57 10° S 21:41:11 78° E 21:47:31 10° NNE
Cosmos 1825 3.4 21:40:13 10° NNW 21:43:50 42° W 21:47:24 10° SSW
Cosmos 2278 Rocket 3.8 21:39:46 10° NW 21:44:47 33° WSW 21:49:46 10° SSW
BREEZE-M DEB (TANK) 2.3 21:38:30 10° W 21:45:17 86° S 21:47:21 16° E
Cosmos 1515 Rocket 4.4 21:41:23 10° SSW 21:45:46 54° WNW 21:50:10 10° N
SL-8 Rocket 4.3 21:42:11 10° SSW 21:48:29 75° W 21:54:46 10° N
Cosmos 405 Rocket 3.1 21:45:48 10° SSE 21:49:30 45° E 21:53:19 10° NNE
Lacrosse 5 2.3 21:44:46 10° NW 21:49:48 59° NNE 21:53:59 15° ESE
SPOT 5 3.4 21:53:59 18° ESE 21:56:43 36° ENE 22:00:45 10° N
Cosmos 1437 Rocket 3.7 21:54:02 10° N 21:57:35 33° ENE 21:59:27 21° ESE
USA 81 4.0 21:53:00 10° N 21:58:20 88° E 22:03:36 10° S
Cosmos 1371 Rocket 4.2 21:54:15 10° SSW 21:59:35 77° WNW 22:05:00 10° NNE
SPOT 1/Viking Rocket 4.2 21:57:25 18° SE 22:00:50 42° ENE 22:05:45 10° N
Cosmos 1023 Rocket 4.4 21:55:57 10° NNW 22:01:09 89° SW 22:05:04 17° SSE
Cosmos 676 Rocket 4.1 21:58:04 10° NNW 22:03:21 76° WSW 22:07:35 16° SSE
Cosmos 1862 3.5 22:00:58 10° NNW 22:05:01 75° W 22:08:24 14° S
H-2A R/B 1.9 22:04:33 17° SSE 22:08:29 81° ENE 22:13:27 10° NNW
USA 234 3.9 22:06:51 10° E 22:13:09 52° N 22:19:28 10° WNW
MetOp-B 4.2 22:10:38 15° SSE 22:15:07 81° WSW 22:20:31 10° NNW
RESURS DK-1 3.3 22:12:05 10° NNW 22:15:59 37° NE 22:17:54 23° E
Helios 1B rocket 3.4 22:13:21 10° NE 22:16:56 28° E 22:17:38 26° ESE
Cosmos 1943 Rocket 2.9 22:13:11 10° NNW 22:18:24 40° NE 22:21:35 21° ESE
Meteor 2-10 Rocket 4.1 22:13:06 10° SSW 22:18:51 68° WNW 22:24:41 10° N
Cosmos 2242 Rocket 4.4 22:17:35 27° ESE 22:18:54 32° E 22:22:51 10° NNE
ARGOS 3.4 22:14:36 13° S 22:19:21 68° WSW 22:24:43 10° NNW
USA 245 1.8 22:19:52 71° ESE 22:19:59 74° ENE 22:22:14 10° N
CZ-4C R/B 2.6 22:15:35 10° S 22:20:23 38° ESE 22:25:52 10° NE
Cosmos 2056 Rocket 4.0 22:15:20 10° SW 22:20:43 66° WNW 22:26:06 10° NNE
Cosmos 1452 Rocket 3.5 22:16:08 10° S 22:21:16 58° ESE 22:26:26 10° NNE
Cosmos 1140 Rocket 3.9 22:19:46 10° NNW 22:24:53 60° WSW 22:28:28 19° S
Cosmos 1934 Rocket 4.2 22:25:38 23° SSE 22:29:06 48° E 22:34:54 10° NNE
SL-16 R/B 2.3 22:25:54 10° SSW 22:31:34 78° WNW 22:37:16 10° NNE
Intercosmos 24 4.5 22:28:12 19° S 22:32:08 58° E 22:36:18 10° NNE
Cosmos 1850 Rocket 3.9 22:29:24 10° NNW 22:34:38 83° ENE 22:37:13 31° SSE
Resurs 01 Rocket 4.3 22:32:32 10° WSW 22:35:01 15° W 22:37:31 10° NW
Cosmos 921 Rocket 3.6 22:35:24 34° ESE 22:35:53 35° ESE 22:39:48 10° NE
Cosmos 1862 Rocket 3.9 22:38:10 36° SE 22:39:18 45° E 22:43:29 10° NNE
Landsat 7 3.8 22:39:26 34° SSE 22:41:29 70° ENE 22:46:15 10° N
Cosmos 1741 Rocket 4.0 22:39:00 10° NNW 22:44:23 86° WSW 22:46:53 33° SSE
Cosmos 1606 3.5 22:48:29 35° E 22:48:29 35° E 22:51:59 10° NNE
SL-8 R/B 3.6 22:44:12 10° W 22:48:59 74° S 22:51:21 30° E
Gblst 52 Del rocket 4.4 22:45:23 10° SW 22:50:33 42° SE 22:55:47 10° ENE
Helios 1A 3.4 22:50:29 30° SSW 22:52:22 56° WSW 22:56:30 10° NNW
Cosmos 1461 3.7 22:49:44 10° NW 22:54:27 53° NE 22:56:11 34° E
BREEZE M DEB (TANK) 3.7 22:44:02 10° W 22:58:44 86° S 23:01:41 23° E
Cosmos 1603 3.6 22:55:26 23° S 22:58:58 66° ESE 23:04:33 10° NNE
Terra 1.8 22:57:51 43° SE 22:59:22 71° ENE 23:04:08 10° N
Cosmos 1943 3.6 22:58:26 37° SE 22:59:30 40° ESE 23:04:47 10° NE
Meteor 1-29 3.2 22:56:11 10° NNE 22:59:11 51° ENE 22:59:11 51° ENE
Cosmos 1933 4.2 22:57:18 17° SW 23:00:09 49° WNW 23:04:09 10° N
Cosmos 1821 Rocket 4.1 22:55:35 15° SSW 23:00:59 78° W 23:07:17 10° N
Cosmos 2369 Rocket 2.2 22:56:13 10° NNW 23:01:57 83° WSW 23:04:12 39° SSE
Cosmos 1633 2.4 22:59:09 10° NNW 23:02:44 80° W 23:03:07 67° SSW
ATLAS CENTAUR R/B 4.4 23:01:34 10° WNW 23:04:03 16° NNW 23:06:38 10° NNE
CZ-2C R/B 3.6 23:01:46 10° NE 23:06:24 29° E 23:06:44 28° E
Cosmos 2263 4.1 23:04:29 10° NNW 23:10:08 86° ENE 23:12:03 43° SSE
IGS 5A 3.4 23:09:29 56° S 23:10:20 84° WSW 23:14:33 10° NNW
Meteor 1-4 Rocket 2.6 23:06:58 10° NNW 23:10:26 65° W 23:10:38 63° WSW
Cosmos 1782 3.1 23:11:02 49° E 23:11:02 49° E 23:14:43 10° NNE
Meteor 1-11 Rocket 4.4 23:06:37 10° N 23:11:55 39° ENE 23:13:27 33° ESE
ERS-1 Rocket 4.3 23:09:53 17° SSW 23:13:04 32° W 23:17:35 10° NNW
Cosmos 1733 Rocket 3.7 23:08:58 10° NNW 23:13:14 50° W 23:14:44 34° SSW
Cosmos 2123 Rocket 4.1 23:08:47 10° NNW 23:15:05 72° W 23:18:14 31° S
Spot 4 4.4 23:15:21 39° E 23:16:18 44° ENE 23:20:51 10° N
CARTOSAT-1 3.6 23:16:13 53° S 23:17:09 73° WSW 23:21:29 10° NNW
USA 267 3.5 23:13:27 10° ENE 23:19:35 41° SE 23:20:46 38° SSE
Cosmos 389 Rocket 2.8 23:16:14 10° N 23:19:16 55° NE 23:19:16 55° NE
ATLAS 5 CENTAUR R/B 2.5 23:13:56 10° NW 23:19:43 68° SW 23:21:55 41° SSE
Cosmos 1331 Rocket 4.3 23:23:13 45° ESE 23:23:29 46° ESE 23:28:30 10° NE
Cosmos 1602 3.9 23:20:32 10° N 23:24:22 58° ENE 23:24:22 58° ENE
Cosmos 1536 4.4 23:21:13 10° NNE 23:24:23 24° ENE 23:24:23 24° ENE
Cosmos 1271 Rocket 4.0 23:21:01 10° N 23:24:26 31° ENE 23:24:26 31° ENE
GEOS 3 Rocket 3.5 23:22:20 10° NE 23:27:44 71° SE 23:30:13 32° SSW
Lacrosse 5 2.3 23:27:54 10° WNW 23:32:43 44° SW 23:33:10 43° SSW
YAOGAN 11 4.2 23:32:56 55° SW 23:33:32 62° WSW 23:37:49 10° NNW
Sich 1 Rocket 3.5 23:29:07 10° N 23:33:45 87° ENE 23:34:16 70° SSE
Okean 1-7 3.5 23:34:49 45° ENE 23:34:49 45° ENE 23:38:29 10° NNE
SPOT 5 4.2 23:33:13 23° SW 23:34:53 29° W 23:38:44 10° NW
CZ-2C R/B 2.8 23:36:39 62° S 23:37:27 84° WSW 23:42:23 10° NNW
Cosmos 1782 Rocket 3.4 23:34:08 10° N 23:38:38 80° ENE 23:38:55 75° SE
Cosmos 1486 Rocket 4.1 23:34:27 10° NNW 23:39:43 64° ENE 23:40:43 53° ESE
Cosmos 2173 Rocket 4.3 23:41:15 43° ESE 23:42:27 48° E 23:48:31 10° NNE
Okean 2 Rocket 3.3 23:40:06 10° N 23:44:27 56° ENE 23:44:27 56° ENE
Cosmos 2344 3.9 23:37:21 10° SW 23:44:59 74° NW 23:54:04 10° NE
H-2A R/B 4.3 23:45:38 10° SW 23:48:32 15° W 23:51:26 10° NW
SAR-Lupe-4 4.1 23:50:09 57° NW 23:50:09 57° NW 23:53:08 10° NNW
Cosmos 1605 Rocket 4.3 23:48:29 31° SSW 23:51:37 66° WNW 23:58:01 10° N
Helios 1B rocket 3.9 23:48:31 10° N 23:52:15 34° WNW 23:54:00 23° WSW
Cosmos 1110 Rocket 3.9 23:51:57 59° SSW 23:52:59 86° ESE 23:58:21 10° NNE
RESURS DK-1 3.7 23:50:19 10° NW 23:53:48 29° WSW 23:53:48 29° WSW
